This is the latest recevied weather packets stored in our database for station/object DL7KST-13. If no packets are shown the sender has not sent any weather packets the latest 10 day(s).
| Time | Temp. | Humidity | Pressure | Rain* | Wind** | Luminosity | Snow |
|---|---|---|---|---|---|---|---|
| 1777607843 | 1.67° C | 92% | 1019.5 hPa | 0 mm | 0.45 m/s, 56° | - | - |
| 1777606638 | 1.67° C | 93% | 1019.5 hPa | 0 mm | 0.45 m/s, 49° | - | - |
| 1777605432 | 1.67° C | 91% | 1019.6 hPa | 0 mm | 0.45 m/s, 71° | - | - |
| 1777604228 | 1.67° C | 93% | 1019.5 hPa | 0 mm | 0.45 m/s, 64° | - | - |
| 1777603023 | 2.22° C | 90% | 1019.5 hPa | 0 mm | 0.45 m/s, 67° | - | - |
| 1777601818 | 2.22° C | 91% | 1019.5 hPa | 0 mm | 0.45 m/s, 59° | - | - |
| 1777600613 | 2.78° C | 90% | 1019.7 hPa | 0 mm | 0.45 m/s, 105° | - | - |
| 1777599408 | 2.78° C | 90% | 1019.4 hPa | 0 mm | 0.45 m/s, 73° | - | - |
| 1777598203 | 2.78° C | 90% | 1019.4 hPa | 0 mm | 0.45 m/s, 290° | - | - |
| 1777597034 | 3.33° C | 88% | 1019.3 hPa | 0 mm | 0.45 m/s, 137° | - | - |
| 1777596998 | 3.33° C | 88% | 1019.3 hPa | 0 mm | 0.45 m/s, 137° | - | - |
| 1777595793 | 3.33° C | 87% | 1019.1 hPa | 0 mm | 0.89 m/s, 63° | - | - |
| 1777594589 | 3.89° C | 86% | 1019.2 hPa | 0 mm | 0.45 m/s, 83° | - | - |
| 1777593383 | 3.89° C | 85% | 1019.4 hPa | 0 mm | 0.89 m/s, 47° | - | - |
| 1777592178 | 4.44° C | 85% | 1019.4 hPa | 0 mm | 0.45 m/s, 76° | - | - |
| 1777590973 | 5° C | 82% | 1019.4 hPa | 0 mm | 0.45 m/s, 185° | - | - |
| 1777589903 | 5° C | 82% | 1019.5 hPa | 0 mm | 0.45 m/s, 5° | - | - |
| 1777589767 | 5° C | 82% | 1019.5 hPa | 0 mm | 0.45 m/s, 5° | - | - |
| 1777588563 | 5.56° C | 81% | 1019.6 hPa | 0 mm | 0.89 m/s, 77° | - | - |
| 1777587358 | 5.56° C | 80% | 1019.7 hPa | 0 mm | 0.45 m/s, 25° | - | - |
| 1777586153 | 6.11° C | 79% | 1019.9 hPa | 0 mm | 0.89 m/s, 31° | - | - |
| 1777584949 | 6.11° C | 78% | 1019.8 hPa | 0 mm | 0 m/s | - | - |
| 1777583743 | 6.67° C | 75% | 1019.5 hPa | 0 mm | 0 m/s | - | - |
| 1777582538 | 7.22° C | 75% | 1019.5 hPa | 0 mm | 0.45 m/s, 73° | - | - |
| 1777581333 | 7.78° C | 72% | 1019.7 hPa | 0 mm | 0.45 m/s, 52° | - | - |
* Rain latest hour (hover to see other rain measurements)
** Current wind speed in m/s (hover to see current wind gust speed)